Weather History for Teterboro, NJ

Change the Weather History Date:

Wednesday, April 10, 2013

  Actual Average Record
Temperature  
Mean Temperature 64 °F -  
Max Temperature 78 °F 58 °F 78 °F (2013)
Min Temperature 55 °F 39 °F 28 °F (1997)
Degree Days  
Heating Degree Days 1    
Growing Degree Days 14 (Base 50)    
Moisture  
Dew Point 49 °F    
Average Humidity 64    
Maximum Humidity 100    
Minimum Humidity 41    
Precipitation  
Precipitation 0.02 in - - ()
Sea Level Pressure  
Sea Level Pressure 29.88 in    
Wind  
Wind Speed 4 mph (SE)    
Max Wind Speed 13 mph    
Max Gust Speed 34 mph    
Visibility 9 miles    
Events Rain , Thunderstorm    
Averages and records for this station are not official NWS values.
T = Trace of Precipitation, MM = Missing Value Source: NWS Daily Summary

Daily Weather History Graph

Daily Weather History Graph

Search for Another Location

Airport:

Trip Planner

Search our weather history database for the weather conditions in past years. The results will help you decide how hot, cold, wet, or windy it might be!

Date:

Astronomy

Apr. 10, 2013 Rise Set
Actual Time 6:24 AM EDT 7:30 PM EDT
Civil Twilight 5:56 AM EDT 7:59 PM EDT
Nautical Twilight 5:23 AM EDT 8:32 PM EDT
Astronomical Twilight 4:48 AM EDT 9:07 PM EDT
Moon 6:19 AM EDT (4/10) 8:04 PM EDT (4/10)
Length of Visible Light 14h 02m
Length of Day
13h 06m
New Moon, 0% of the Moon is Illuminated
Apr 10
New Moon
Apr 18
First Quarter
Apr 25
Full
May 2
Last Quarter
May 9
New

Hourly Weather History & Observations

Time (EDT) Temp. Dew Point Humidity Pressure Visibility Wind Dir Wind Speed Gust Speed Precip Events Conditions
12:51 AM 64.0 °F 39.9 °F 41% 29.86 in 10.0 mi Calm Calm - N/A   Overcast
1:51 AM 63.0 °F 42.1 °F 46% 29.85 in 10.0 mi Calm Calm - N/A   Scattered Clouds
2:51 AM 60.1 °F 44.1 °F 55% 29.81 in 10.0 mi Calm Calm - N/A   Clear
3:51 AM 64.0 °F 43.0 °F 46% 29.85 in 10.0 mi North 10.4 mph - N/A   Partly Cloudy
4:51 AM 57.0 °F 46.0 °F 67% 29.88 in 10.0 mi North 5.8 mph - N/A   Clear
5:51 AM 55.0 °F 46.0 °F 72% 29.88 in 10.0 mi Calm Calm - N/A   Clear
6:51 AM 55.0 °F 46.0 °F 72% 29.91 in 10.0 mi North 3.5 mph - N/A   Clear
7:51 AM 57.0 °F 46.9 °F 69% 29.93 in 10.0 mi Calm Calm - N/A   Partly Cloudy
8:51 AM 57.9 °F 46.9 °F 67% 29.94 in 10.0 mi Calm Calm - N/A   Mostly Cloudy
9:51 AM 64.0 °F 46.9 °F 54% 29.92 in 10.0 mi Calm Calm - N/A   Partly Cloudy
10:51 AM 68.0 °F 48.9 °F 50% 29.92 in 10.0 mi Variable 4.6 mph - N/A   Clear
11:51 AM 69.1 °F 48.9 °F 49% 29.92 in 10.0 mi NE 3.5 mph - N/A   Overcast
12:51 PM 72.0 °F 51.1 °F 48% 29.91 in 10.0 mi North 6.9 mph - N/A   Clear
1:51 PM 73.9 °F 52.0 °F 46% 29.90 in 10.0 mi East 6.9 mph - N/A   Clear
2:51 PM 73.9 °F 52.0 °F 46% 29.88 in 10.0 mi Variable 3.5 mph 17.3 mph N/A   Clear
3:51 PM 73.0 °F 52.0 °F 48% 29.85 in 10.0 mi East 8.1 mph - N/A   Clear
4:51 PM 71.1 °F 50.0 °F 47% 29.84 in 10.0 mi South 12.7 mph 18.4 mph N/A   Clear
5:51 PM 64.0 °F 48.9 °F 58% 29.84 in 10.0 mi South 12.7 mph - 0.00 in Rain Light Rain
6:51 PM 62.1 °F 48.0 °F 60% 29.89 in 10.0 mi Variable 6.9 mph 23.0 mph 0.00 in   Scattered Clouds
6:59 PM 60.8 °F 48.2 °F 63% 29.96 in 10.0 mi WNW 10.4 mph 34.5 mph N/A Rain Light Rain
7:11 PM 60.8 °F 50.0 °F 68% 29.90 in 3.0 mi SE 3.5 mph - 0.04 in Rain , Thunderstorm Thunderstorms and Rain
7:51 PM 60.1 °F 55.9 °F 86% 29.82 in 8.0 mi ESE 12.7 mph 24.2 mph N/A Rain Light Rain
8:51 PM 59.0 °F 55.9 °F 90% 29.83 in 8.0 mi South 4.6 mph - 0.01 in   Mostly Cloudy
9:51 PM 57.9 °F 55.0 °F 90% 29.82 in 9.0 mi SW 4.6 mph - N/A   Partly Cloudy
10:20 PM 57.2 °F 55.4 °F 94% 29.90 in 5.0 mi WNW 11.5 mph - 0.10 in Rain , Thunderstorm Thunderstorms and Rain
10:51 PM 57.2 °F 57.2 °F 100% 29.87 in 3.0 mi SSE 5.8 mph - N/A Rain , Thunderstorm Thunderstorms and Rain
11:51 PM 57.9 °F 55.9 °F 93% 29.85 in 3.0 mi South 3.5 mph - 0.01 in Rain Light Rain